Notices

What's New in latest Release from April 7th, 2021:

- Updated Glossary, including Speed of Maximum Gust, and Total Hourly Precipitation

- Updated national and regional climate services offices contacts and prices information

- Addition of station inventory lists for 1981-2010, 1971-2000, and 1961-1990 Normals.

If you haven't already, please take our survey and provide feedback about our website: https://eccc.sondage-survey.ca/f/LanguageSelection.aspx?s=442ca660-fcf1-47c0-95a9-59707d6fd709

Hourly Data Report for June 04, 2004

SHERBROOKE A
QUEBEC

45°26'00.000" N
71°41'00.000" W
241.40 m
7028124
71610
YSC

Download Data

Hourly Data (June 2004)
Hourly Data Report for June 4, 2004
TIME
LST
Temp Definition
°C
Dew Point Definition
°C
Rel Hum Definition
%
Precip. Amount Definition
mm

Wind Dir Definition
10's deg

Wind Spd Definition
km/h
Visibility Definition
km
Stn Press Definition
kPa
Hmdx Definition


Wind Chill Definition


Weather Definition


00:00 4.4 3.4 93   28 11 15.0 99.07      
01:00 6.3 5.3 93   30 11 15.0 99.09      
02:00 6.9 5.8 93   29 11 15.0 99.16      
03:00 6.6 5.3 91   28 9 15.0 99.19      
04:00 6.8 5.6 92     0 15.0 99.24      
05:00 7.5 6.0 90     0 15.0 99.31      
06:00 7.8 6.0 88   27 6 15.0 99.38      
07:00 8.4 6.2 86   27 7 24.1 99.39     Cloudy
08:00 9.0 5.8 80   28 7 24.1 99.41     Cloudy
09:00 10.0 6.6 79   26 9 24.1 99.40     Cloudy
10:00 11.2 6.6 73   27 11 24.1 99.39     Cloudy
11:00 13.9 8.0 68   27 19 24.1 99.36     Mostly Cloudy
12:00 15.5 8.3 62   27 15 24.1 99.33     Mainly Clear
13:00 16.8 7.2 53   29 22 24.1 99.29     Mainly Clear
14:00 16.5 6.4 51   27 24 24.1 99.26     Mainly Clear
15:00 17.0 6.4 50   28 20 24.1 99.23     Mainly Clear
16:00 17.1 6.3 49   29 15 24.1 99.21     Mainly Clear
17:00 17.1 6.2 49   28 15 15.0 99.21      
18:00 16.7 6.7 52   29 13 15.0 99.22      
19:00 15.3 6.1 54   24 9 15.0 99.26      
20:00 11.4 6.2 70   21 7 15.0 99.31      
21:00 7.3 4.9 85   19 4 15.0 99.35      
22:00 5.9 4.3 89   9 4 15.0 99.35      
23:00 5.4 4.0 91     0 15.0 99.34      

Notes on Data Quality.

Legend

  • E = Estimated
  • M = Missing
  • NA = Not Available*
  • [empty] = Indicates an unobserved value
Date modified: